Location: Acheville
(50.3840°N, 2.8827°E)
Time: 00:16:18
(UTC+00:00)

FENGYUN 1C DEB - Pass Details

Date: 08 February 2023
Orbit: 634 x 940 km, 98.3° (Epoch: 28 March)

Event Time Altitude Azimuth Distance (km) Brightness Sun altitude
Rises 19:02:23 0° 221° (SW) 3,163 ? -20.9°
Reaches altitude 10° 19:06:38 10° 257° (WSW) 2,170 ? -21.6°
Maximum altitude 19:07:55 11° 273° (W) 2,083 ? -21.8°
Drops below altitude 10° 19:09:12 10° 289° (WNW) 2,133 ? -22.0°
Sets 19:13:15 0° 326° (NW) 2,999 ? -22.6°
